Simultaneous Nadir Overpasses (SNOs) Predictions

Prediction of SNOs between LANDSAT-8 and METOP-A Satellite Orbit:

Table of predicted SNOs for the next 14.0 days since TLE Epoch: 11/29/2013
Index Date (LANDSAT-8) Time (LANDSAT-8) Lat,Lon (LANDSAT-8) SZA (LANDSAT-8 ) Date (METOP-A) Time (METOP-A) Lat,Lon (METOP-A) SZA (METOP-A ) Distance(km) Time Diff (sec)
1 12/02/2013 08:03:55 81.18, 99.91 105.45 12/02/2013 08:03:40 81.18, 100.04 105.45 2.26 15
2 12/02/2013 08:53:22 -81.18, -92.46 74.56 12/02/2013 08:54:21 -81.18, -92.57 74.54 1.85 59
3 12/05/2013 03:38:10 81.17, 166.12 105.77 12/05/2013 03:37:59 81.17, 166.23 105.78 1.98 11
4 12/05/2013 04:27:36 -81.19, -25.84 74.18 12/05/2013 04:28:39 -81.19, -25.99 74.17 2.52 63
5 12/07/2013 23:12:25 81.17,-127.37 106.07 12/07/2013 23:12:18 81.18,-127.27 106.08 1.88 7
6 12/08/2013 00:01:51 -81.20, 40.69 73.87 12/08/2013 00:02:58 -81.19, 40.52 73.86 3.07 67
7 12/10/2013 18:46:40 81.17, -60.96 106.30 12/10/2013 18:46:37 81.18, -60.84 106.32 2.05 3
8 12/10/2013 19:36:06 -81.20, 107.14 73.63 12/10/2013 19:37:16 -81.20, 107.33 73.58 3.27 70
9 12/13/2013 13:31:29 -81.15,-162.54 73.58 12/13/2013 13:30:17 -81.15,-162.69 73.63 2.45 72
10 12/13/2013 14:20:53 81.19, 5.74 106.52 12/13/2013 14:20:54 81.19, 5.89 106.53 2.44 1




NCC Satellite Simultaneous Nadir Overpasses (SNOs) Prediction Service
